User: anonymous   Login
Location: Caltech
(34.1382°N, 118.1253°W)
Time: 13:10:01
(UTC-07:00)
Language:

Cosmos 44 Rocket - Orbit

View from above orbital plane
View from above orbital plane
View from above satellite
View from above satellite

Ground track
Ground track

The orbit data is extracted from the following two-line orbital elements,

1   877U 64053B   16238.60496043  .00000046  00000-0  92848-5 0  9998
2   877  65.0780  75.9694 0079975 235.1018 124.3033 14.59252413758380
Epoch (UTC): 25 August 2016 14:31:08
Eccentricity: 0.0079975
inclination: 65.0780°
perigee height: 639 km
apogee height: 752 km
right ascension of ascending node: 75.9694°
argument of perigee: 235.1018°
revolutions per day: 14.59252413
mean anomaly at epoch: 124.3033°
orbit number at epoch: 75838

The dashed part of the orbit path shows where the satellite is in the earth's shadow,  

DLR